SAA317Q FAOR-FACT

Flight info

Callsign SAA317Q
Flight time 2h 1m
Altitude 38000
Route RAGUL1D RAGUL UQ10 DUMDO UZ26 ERDAS ERDAS1C
Aircraft A320/M-SDE3FGHIRWY/LB1

Departure

Time 2026-05-03 22:38
Airport O.R. Tambo International Airport (FAOR)

Arrival

Time 2026-05-04 00:40
Airport Cape Town International Airport (FACT)
Time Latitude Longitude Altitude Speed Heading
2026-05-03 22:20 -26.13686 28.23149 5547 ft 0 kts
2026-05-03 22:24 -26.13689 28.23148 5547 ft 2 kts
2026-05-03 22:25 -26.13707 28.23146 5551 ft 3 kts 13°
2026-05-03 22:25 -26.13726 28.23139 5551 ft 3 kts 28°
2026-05-03 22:25 -26.13742 28.23127 5548 ft 3 kts 60°
2026-05-03 22:25 -26.13746 28.23114 5547 ft 1 kts 95°
2026-05-03 22:26 -26.13746 28.23113 5548 ft 0 kts 96°
2026-05-03 22:29 -26.13747 28.23130 5547 ft 11 kts 96°
2026-05-03 22:29 -26.13757 28.23230 5549 ft 2 kts 96°
2026-05-03 22:30 -26.13760 28.23254 5548 ft 7 kts 96°
2026-05-03 22:30 -26.13763 28.23343 5547 ft 16 kts 95°
2026-05-03 22:30 -26.13790 28.23461 5553 ft 13 kts 92°
2026-05-03 22:31 -26.13718 28.23519 5555 ft 18 kts 15°
2026-05-03 22:31 -26.13564 28.23566 5553 ft 27 kts 15°
2026-05-03 22:31 -26.13408 28.23615 5551 ft 24 kts 16°
2026-05-03 22:31 -26.13231 28.23669 5548 ft 28 kts 15°
2026-05-03 22:32 -26.13073 28.23718 5546 ft 21 kts 17°
2026-05-03 22:32 -26.12916 28.23768 5548 ft 26 kts 15°
2026-05-03 22:32 -26.12751 28.23820 5546 ft 17 kts 17°
2026-05-03 22:32 -26.12622 28.23862 5546 ft 22 kts 16°
2026-05-03 22:33 -26.12466 28.23906 5543 ft 25 kts 17°
2026-05-03 22:33 -26.12330 28.23948 5539 ft 21 kts 15°
2026-05-03 22:33 -26.12169 28.23999 5535 ft 27 kts 18°
2026-05-03 22:33 -26.11970 28.24060 5532 ft 32 kts 15°
2026-05-03 22:34 -26.11754 28.24127 5526 ft 30 kts 16°
2026-05-03 22:34 -26.11540 28.24194 5526 ft 34 kts 15°
2026-05-03 22:34 -26.11321 28.24260 5524 ft 31 kts 15°
2026-05-03 22:34 -26.11160 28.24311 5517 ft 20 kts 15°
2026-05-03 22:35 -26.11040 28.24347 5514 ft 2 kts 16°
2026-05-03 22:35 -26.11005 28.24359 5514 ft 8 kts 16°
2026-05-03 22:35 -26.10929 28.24381 5513 ft 15 kts 11°
2026-05-03 22:35 -26.10808 28.24409 5509 ft 15 kts 16°
2026-05-03 22:36 -26.10788 28.24516 5508 ft 11 kts 105°
2026-05-03 22:36 -26.10823 28.24600 5508 ft 12 kts 143°
2026-05-03 22:36 -26.10899 28.24593 5508 ft 10 kts 195°
2026-05-03 22:36 -26.10962 28.24575 5510 ft 0 kts 194°
2026-05-03 22:37 -26.10988 28.24567 5512 ft 23 kts 195°
2026-05-03 22:37 -26.11418 28.24435 5528 ft 104 kts 195°
2026-05-03 22:37 -26.12336 28.24150 5535 ft 167 kts 195°
2026-05-03 22:38 -26.13594 28.23781 5841 ft 196 kts 197°
2026-05-03 22:38 -26.14925 28.23383 6733 ft 197 kts 197°
2026-05-03 22:38 -26.16304 28.22974 7003 ft 216 kts 197°
2026-05-03 22:38 -26.17801 28.22531 7296 ft 230 kts 197°
2026-05-03 22:39 -26.19362 28.22045 7825 ft 241 kts 198°
2026-05-03 22:39 -26.21074 28.21488 7991 ft 271 kts 198°
2026-05-03 22:39 -26.22955 28.20878 8414 ft 289 kts 198°
2026-05-03 22:39 -26.24916 28.20253 9098 ft 296 kts 198°
2026-05-03 22:40 -26.26921 28.19622 9851 ft 301 kts 198°
2026-05-03 22:40 -26.28893 28.18830 10553 ft 303 kts 214°
2026-05-03 22:40 -26.30338 28.17169 11203 ft 302 kts 243°
2026-05-03 22:40 -26.30926 28.14875 11391 ft 319 kts 269°
2026-05-03 22:41 -26.30807 28.12356 11765 ft 330 kts 279°
2026-05-03 22:41 -26.30422 28.09848 12365 ft 334 kts 282°
2026-05-03 22:41 -26.30000 28.07272 13021 ft 338 kts 281°
2026-05-03 22:41 -26.29645 28.04661 13649 ft 342 kts 278°
2026-05-03 22:42 -26.29380 28.02010 14242 ft 347 kts 276°
2026-05-03 22:42 -26.29193 27.99314 14808 ft 350 kts 274°
2026-05-03 22:42 -26.29063 27.96588 15400 ft 353 kts 272°
2026-05-03 22:42 -26.29292 27.93855 15974 ft 357 kts 259°
2026-05-03 22:43 -26.30029 27.91246 16543 ft 361 kts 248°
2026-05-03 22:43 -26.31148 27.88717 17116 ft 364 kts 245°
2026-05-03 22:43 -26.32288 27.86181 17700 ft 367 kts 245°
2026-05-03 22:43 -26.33427 27.83614 18277 ft 370 kts 246°
2026-05-03 22:44 -26.34574 27.81027 18822 ft 372 kts 246°
2026-05-03 22:44 -26.35717 27.78452 19312 ft 375 kts 245°
2026-05-03 22:44 -26.36879 27.75831 19833 ft 378 kts 246°
2026-05-03 22:44 -26.38052 27.73184 20338 ft 381 kts 246°
2026-05-03 22:45 -26.38292 27.72642 20443 ft 382 kts 246°
2026-05-03 22:45 -26.38904 27.71262 20701 ft 383 kts 246°
2026-05-03 22:45 -26.39627 27.69632 21034 ft 383 kts 246°
2026-05-03 22:45 -26.40592 27.67462 21254 ft 391 kts 246°
2026-05-03 22:46 -26.41588 27.65220 21710 ft 390 kts 246°
2026-05-03 22:46 -26.44865 27.57318 21837 ft 396 kts 249°
2026-05-03 22:46 -26.44965 27.57051 21850 ft 397 kts 247°
2026-05-03 22:47 -26.46438 27.54687 22278 ft 403 kts 227°
2026-05-03 22:47 -26.48791 27.52414 22953 ft 404 kts 220°
2026-05-03 22:47 -26.51366 27.50246 23501 ft 409 kts 219°
2026-05-03 22:47 -26.53942 27.48016 24041 ft 412 kts 221°
2026-05-03 22:48 -26.60084 27.41773 24909 ft 409 kts 221°
2026-05-03 22:48 -26.62668 27.39325 25219 ft 416 kts 225°
2026-05-03 22:48 -26.66774 27.34995 25937 ft 420 kts 226°
2026-05-03 22:48 -26.68826 27.32658 26333 ft 422 kts 228°
2026-05-03 22:49 -26.70871 27.30262 26746 ft 424 kts 228°
2026-05-03 22:49 -26.72905 27.27913 27142 ft 427 kts 227°
2026-05-03 22:49 -26.74996 27.25568 28329 ft 428 kts 225°
2026-05-03 22:49 -26.77452 27.22897 27863 ft 431 kts 226°
2026-05-03 22:50 -26.79696 27.20499 28338 ft 431 kts 225°
2026-05-03 22:50 -26.81871 27.18185 28569 ft 435 kts 225°
2026-05-03 22:50 -26.84075 27.15838 28867 ft 437 kts 225°
2026-05-03 22:50 -26.86292 27.13468 29242 ft 439 kts 226°
2026-05-03 22:51 -26.88480 27.11118 29598 ft 442 kts 226°
2026-05-03 22:51 -26.90697 27.08730 29965 ft 444 kts 226°
2026-05-03 22:51 -26.91543 27.07817 30101 ft 445 kts 226°
2026-05-03 22:52 -26.92254 27.07049 30218 ft 446 kts 226°
2026-05-03 22:52 -26.94466 27.04657 30543 ft 448 kts 226°
2026-05-03 22:52 -26.96710 27.02219 30857 ft 450 kts 226°
2026-05-03 22:52 -26.98955 26.99754 31165 ft 451 kts 226°
2026-05-03 22:53 -27.01202 26.97275 31468 ft 453 kts 226°
2026-05-03 22:53 -27.03416 26.94825 31876 ft 451 kts 227°
2026-05-03 22:53 -27.05650 26.92353 32330 ft 449 kts 227°
2026-05-03 22:53 -27.07875 26.89895 32784 ft 447 kts 227°
2026-05-03 22:54 -27.10094 26.87445 33231 ft 446 kts 227°
2026-05-03 22:54 -27.12304 26.85007 33684 ft 444 kts 227°
2026-05-03 22:54 -27.14504 26.82577 34147 ft 442 kts 227°
2026-05-03 22:54 -27.16692 26.80164 34557 ft 441 kts 227°
2026-05-03 22:55 -27.18907 26.77716 34943 ft 439 kts 228°
2026-05-03 22:55 -27.21080 26.75306 35308 ft 437 kts 228°
2026-05-03 22:55 -27.23251 26.72898 35648 ft 436 kts 228°
2026-05-03 22:55 -27.25372 26.70546 36052 ft 432 kts 228°
2026-05-03 22:56 -27.27482 26.68212 36775 ft 420 kts 228°
2026-05-03 22:56 -27.29537 26.65940 37521 ft 408 kts 229°
2026-05-03 22:56 -27.31545 26.63721 38065 ft 402 kts 229°
2026-05-03 22:56 -27.33534 26.61513 38236 ft 404 kts 229°
2026-05-03 22:57 -27.35544 26.59276 38270 ft 408 kts 229°
2026-05-03 22:57 -27.39636 26.54702 38304 ft 419 kts 229°
2026-05-03 22:57 -27.41690 26.52410 38439 ft 421 kts 229°
2026-05-03 22:58 -27.43788 26.50077 38581 ft 424 kts 229°
2026-05-03 22:58 -27.45893 26.47739 38717 ft 426 kts 229°
2026-05-03 22:58 -27.48007 26.45382 38855 ft 428 kts 229°
2026-05-03 22:58 -27.50099 26.43045 38976 ft 429 kts 229°
2026-05-03 22:59 -27.52227 26.40669 39094 ft 431 kts 229°
2026-05-03 22:59 -27.54366 26.38281 39201 ft 433 kts 229°
2026-05-03 22:59 -27.56519 26.35877 39307 ft 434 kts 229°
2026-05-03 22:59 -27.58666 26.33478 39423 ft 435 kts 229°
2026-05-03 23:00 -27.60822 26.31065 39539 ft 436 kts 229°
2026-05-03 23:00 -27.62939 26.28695 39650 ft 437 kts 229°
2026-05-03 23:00 -27.65126 26.26245 39763 ft 438 kts 229°
2026-05-03 23:00 -27.67262 26.23849 39872 ft 438 kts 230°
2026-05-03 23:01 -27.69431 26.21417 39993 ft 438 kts 229°
2026-05-03 23:01 -27.71605 26.18983 40140 ft 438 kts 229°
2026-05-03 23:01 -27.73773 26.16556 40219 ft 439 kts 229°
2026-05-03 23:02 -27.78104 26.11689 40231 ft 444 kts 230°
2026-05-03 23:02 -27.82503 26.06731 40221 ft 448 kts 230°
2026-05-03 23:03 -27.86942 26.01729 40220 ft 450 kts 230°
2026-05-03 23:03 -27.91383 25.96729 40212 ft 450 kts 230°
2026-05-03 23:04 -27.95800 25.91748 40225 ft 451 kts 230°
2026-05-03 23:04 -28.00249 25.86715 40225 ft 452 kts 230°
2026-05-03 23:05 -28.04701 25.81670 40210 ft 451 kts 230°
2026-05-03 23:05 -28.09107 25.76676 40206 ft 450 kts 230°
2026-05-03 23:06 -28.13531 25.71649 40219 ft 450 kts 230°
2026-05-03 23:06 -28.17967 25.66614 40204 ft 450 kts 230°
2026-05-03 23:07 -28.22364 25.61612 40204 ft 450 kts 231°
2026-05-03 23:07 -28.26784 25.56572 40210 ft 450 kts 231°
2026-05-03 23:08 -28.31181 25.51550 40210 ft 451 kts 231°
2026-05-03 23:08 -28.35605 25.46496 40192 ft 450 kts 231°
2026-05-03 23:09 -28.39277 25.42309 40194 ft 449 kts 231°
2026-05-03 23:09 -28.43690 25.37264 40193 ft 449 kts 231°
2026-05-03 23:10 -28.48803 25.31397 40202 ft 449 kts 231°
2026-05-03 23:10 -28.52461 25.27188 40193 ft 449 kts 231°
2026-05-03 23:11 -28.56865 25.22125 40196 ft 450 kts 231°
2026-05-03 23:11 -28.61275 25.17062 40206 ft 451 kts 231°
2026-05-03 23:12 -28.65682 25.11984 40202 ft 451 kts 231°
2026-05-03 23:12 -28.70095 25.06889 40204 ft 451 kts 231°
2026-05-03 23:13 -28.74487 25.01826 40204 ft 451 kts 231°
2026-05-03 23:13 -28.78886 24.96743 40186 ft 446 kts 232°
2026-05-03 23:14 -28.83212 24.91723 40181 ft 446 kts 232°
2026-05-03 23:14 -28.87579 24.86652 40197 ft 447 kts 232°
2026-05-03 23:15 -28.91915 24.81619 40199 ft 447 kts 232°
2026-05-03 23:15 -28.96294 24.76531 40197 ft 447 kts 232°
2026-05-03 23:16 -29.00625 24.71491 40164 ft 446 kts 232°
2026-05-03 23:16 -29.04965 24.66426 40169 ft 445 kts 232°
2026-05-03 23:17 -29.09306 24.61359 40164 ft 445 kts 232°
2026-05-03 23:17 -29.13641 24.56296 40170 ft 445 kts 232°
2026-05-03 23:18 -29.17942 24.51263 40161 ft 445 kts 232°
2026-05-03 23:18 -29.22274 24.46185 40164 ft 445 kts 232°
2026-05-03 23:19 -29.26606 24.41106 40159 ft 445 kts 232°
2026-05-03 23:19 -29.30917 24.36045 40144 ft 444 kts 233°
2026-05-03 23:20 -29.35239 24.30974 40147 ft 444 kts 233°
2026-05-03 23:20 -29.39546 24.25897 40139 ft 444 kts 233°
2026-05-03 23:21 -29.43830 24.20833 40140 ft 444 kts 233°
2026-05-03 23:21 -29.48151 24.15734 40150 ft 445 kts 233°
2026-05-03 23:22 -29.54630 24.08077 40160 ft 445 kts 233°
2026-05-03 23:22 -29.58918 24.02995 40163 ft 445 kts 233°
2026-05-03 23:23 -29.63232 23.97872 40153 ft 446 kts 233°
2026-05-03 23:23 -29.67553 23.92753 40151 ft 446 kts 233°
2026-05-03 23:24 -29.71872 23.87623 40126 ft 445 kts 233°
2026-05-03 23:24 -29.76138 23.82543 40121 ft 444 kts 233°
2026-05-03 23:25 -29.80434 23.77417 40116 ft 444 kts 233°
2026-05-03 23:25 -29.84728 23.72290 40135 ft 443 kts 234°
2026-05-03 23:26 -29.89008 23.67177 40113 ft 443 kts 234°
2026-05-03 23:26 -29.93295 23.62049 40114 ft 444 kts 234°
2026-05-03 23:27 -29.97556 23.56938 40122 ft 444 kts 234°
2026-05-03 23:27 -30.01833 23.51795 40126 ft 444 kts 234°
2026-05-03 23:28 -30.06123 23.46640 40124 ft 445 kts 234°
2026-05-03 23:28 -30.10417 23.41476 40123 ft 444 kts 234°
2026-05-03 23:29 -30.14661 23.36369 40098 ft 442 kts 234°
2026-05-03 23:29 -30.18914 23.31235 40119 ft 442 kts 235°
2026-05-03 23:30 -30.23142 23.26127 40101 ft 441 kts 234°
2026-05-03 23:30 -30.27394 23.20989 40098 ft 441 kts 234°
2026-05-03 23:31 -30.31644 23.15852 40095 ft 441 kts 235°
2026-05-03 23:31 -30.35880 23.10703 40095 ft 441 kts 235°
2026-05-03 23:32 -30.40082 23.05586 40095 ft 440 kts 235°
2026-05-03 23:32 -30.44316 23.00439 40094 ft 441 kts 235°
2026-05-03 23:33 -30.48555 22.95291 40095 ft 440 kts 235°
2026-05-03 23:33 -30.52760 22.90162 40117 ft 440 kts 235°
2026-05-03 23:34 -30.56976 22.84999 40093 ft 440 kts 236°
2026-05-03 23:34 -30.61197 22.79832 40085 ft 440 kts 236°
2026-05-03 23:35 -30.65384 22.74710 40086 ft 440 kts 236°
2026-05-03 23:35 -30.69600 22.69545 40093 ft 441 kts 236°
2026-05-03 23:36 -30.73827 22.64356 40097 ft 441 kts 236°
2026-05-03 23:36 -30.78059 22.59158 40108 ft 442 kts 236°
2026-05-03 23:37 -30.82256 22.53988 40102 ft 442 kts 236°
2026-05-03 23:37 -30.86474 22.48790 40135 ft 442 kts 236°
2026-05-03 23:38 -30.90665 22.43610 40093 ft 441 kts 236°
2026-05-03 23:38 -30.94866 22.38395 40090 ft 440 kts 236°
2026-05-03 23:39 -30.99067 22.33173 40094 ft 441 kts 236°
2026-05-03 23:39 -31.03235 22.27988 40092 ft 441 kts 236°
2026-05-03 23:40 -31.07439 22.22754 40089 ft 441 kts 236°
2026-05-03 23:40 -31.11616 22.17537 40090 ft 441 kts 236°
2026-05-03 23:41 -31.15821 22.12273 40117 ft 442 kts 237°
2026-05-03 23:41 -31.19990 22.07061 40112 ft 441 kts 237°
2026-05-03 23:42 -31.24167 22.01839 40057 ft 439 kts 237°
2026-05-03 23:42 -31.28337 21.96614 40068 ft 440 kts 237°
2026-05-03 23:43 -31.32507 21.91364 40068 ft 440 kts 237°
2026-05-03 23:43 -31.36656 21.86138 40071 ft 441 kts 237°
2026-05-03 23:44 -31.40837 21.80865 40076 ft 441 kts 237°
2026-05-03 23:44 -31.45020 21.75600 40087 ft 441 kts 237°
2026-05-03 23:45 -31.49164 21.70361 40079 ft 440 kts 237°
2026-05-03 23:45 -31.53335 21.65075 40093 ft 440 kts 237°
2026-05-03 23:46 -31.57462 21.59849 40067 ft 438 kts 237°
2026-05-03 23:46 -31.61606 21.54593 40048 ft 438 kts 237°
2026-05-03 23:47 -31.65741 21.49340 40048 ft 438 kts 237°
2026-05-03 23:47 -31.69858 21.44102 40049 ft 438 kts 238°
2026-05-03 23:48 -31.73987 21.38826 40045 ft 437 kts 238°
2026-05-03 23:48 -31.78088 21.33588 40049 ft 438 kts 237°
2026-05-03 23:49 -31.82229 21.28308 40058 ft 439 kts 237°
2026-05-03 23:49 -31.86368 21.23014 40061 ft 438 kts 238°
2026-05-03 23:50 -31.89791 21.18625 40046 ft 437 kts 238°
2026-05-03 23:50 -31.94578 21.12486 40064 ft 437 kts 238°
2026-05-03 23:51 -31.98684 21.07201 40049 ft 437 kts 238°
2026-05-03 23:51 -32.02800 21.01896 40050 ft 438 kts 238°
2026-05-03 23:52 -32.06886 20.96630 40056 ft 438 kts 238°
2026-05-03 23:52 -32.11005 20.91319 40063 ft 439 kts 238°
2026-05-03 23:53 -32.15129 20.85989 40065 ft 439 kts 238°
2026-05-03 23:53 -32.19252 20.80653 40109 ft 439 kts 238°
2026-05-03 23:54 -32.23332 20.75367 40062 ft 437 kts 239°
2026-05-03 23:54 -32.27430 20.70040 40058 ft 438 kts 239°
2026-05-03 23:55 -32.31546 20.64692 40060 ft 438 kts 239°
2026-05-03 23:55 -32.35642 20.59359 40044 ft 438 kts 239°
2026-05-03 23:56 -32.39710 20.54061 40035 ft 437 kts 239°
2026-05-03 23:56 -32.43802 20.48721 40035 ft 437 kts 239°
2026-05-03 23:57 -32.47885 20.43369 40034 ft 436 kts 240°
2026-05-03 23:57 -32.51924 20.38065 40059 ft 436 kts 240°
2026-05-03 23:58 -32.55986 20.32725 40029 ft 436 kts 240°
2026-05-03 23:58 -32.60061 20.27390 40039 ft 436 kts 239°
2026-05-03 23:59 -32.64136 20.22048 40044 ft 437 kts 239°
2026-05-03 23:59 -32.68208 20.16693 39958 ft 435 kts 240°
2026-05-04 00:00 -32.70205 20.14060 39365 ft 434 kts 240°
2026-05-04 00:00 -32.72231 20.11382 38687 ft 434 kts 241°
2026-05-04 00:00 -32.74251 20.08699 37811 ft 436 kts 241°
2026-05-04 00:00 -32.76278 20.06005 36906 ft 438 kts 241°
2026-05-04 00:01 -32.78317 20.03299 35955 ft 440 kts 240°
2026-05-04 00:01 -32.79676 20.01497 35276 ft 443 kts 240°
2026-05-04 00:01 -32.82342 19.97986 34967 ft 427 kts 240°
2026-05-04 00:01 -32.84328 19.95392 34868 ft 415 kts 240°
2026-05-04 00:02 -32.85626 19.93693 34764 ft 407 kts 241°
2026-05-04 00:02 -32.87488 19.91236 34382 ft 405 kts 241°
2026-05-04 00:02 -32.89373 19.88713 33709 ft 407 kts 242°
2026-05-04 00:02 -32.91260 19.86176 32993 ft 410 kts 241°
2026-05-04 00:03 -32.93159 19.83633 32301 ft 411 kts 241°
2026-05-04 00:03 -32.95066 19.81082 31622 ft 413 kts 240°
2026-05-04 00:03 -32.96956 19.78558 31025 ft 413 kts 241°
2026-05-04 00:03 -32.98874 19.76002 30377 ft 413 kts 241°
2026-05-04 00:04 -33.00792 19.73445 29677 ft 414 kts 241°
2026-05-04 00:04 -33.02721 19.70892 28940 ft 415 kts 239°
2026-05-04 00:04 -33.04712 19.68391 28219 ft 417 kts 238°
2026-05-04 00:04 -33.06759 19.65930 27528 ft 418 kts 237°
2026-05-04 00:05 -33.08826 19.63499 26838 ft 418 kts 237°
2026-05-04 00:05 -33.10899 19.61073 26167 ft 416 kts 237°
2026-05-04 00:05 -33.12953 19.58654 25515 ft 414 kts 237°
2026-05-04 00:05 -33.14984 19.56239 24882 ft 411 kts 237°
2026-05-04 00:06 -33.16993 19.53829 24284 ft 408 kts 237°
2026-05-04 00:06 -33.18988 19.51415 23673 ft 406 kts 237°
2026-05-04 00:06 -33.20937 19.49048 22973 ft 404 kts 237°
2026-05-04 00:06 -33.22901 19.46657 22263 ft 403 kts 237°
2026-05-04 00:07 -33.24859 19.44259 21595 ft 399 kts 239°
2026-05-04 00:07 -33.26583 19.41733 20920 ft 390 kts 244°
2026-05-04 00:07 -33.28238 19.39160 20259 ft 389 kts 243°
2026-05-04 00:07 -33.29891 19.36592 19597 ft 388 kts 243°
2026-05-04 00:08 -33.31516 19.34068 18996 ft 387 kts 243°
2026-05-04 00:08 -33.33156 19.31522 18359 ft 387 kts 243°
2026-05-04 00:08 -33.34807 19.28954 17587 ft 389 kts 242°
2026-05-04 00:08 -33.36452 19.26399 16906 ft 386 kts 242°
2026-05-04 00:09 -33.38080 19.23874 16248 ft 381 kts 242°
2026-05-04 00:09 -33.39695 19.21363 15605 ft 381 kts 242°
2026-05-04 00:09 -33.41381 19.18734 15132 ft 412 kts 239°
2026-05-04 00:09 -33.43362 19.16154 14968 ft 424 kts 236°
2026-05-04 00:10 -33.45390 19.13577 15006 ft 427 kts 235°
2026-05-04 00:10 -33.47427 19.10997 15020 ft 427 kts 235°
2026-05-04 00:10 -33.49473 19.08412 15021 ft 426 kts 235°
2026-05-04 00:10 -33.51484 19.05864 15003 ft 425 kts 236°
2026-05-04 00:11 -33.53511 19.03284 15005 ft 425 kts 236°
2026-05-04 00:11 -33.55547 19.00688 14996 ft 425 kts 236°
2026-05-04 00:11 -33.57580 18.98094 14991 ft 425 kts 236°
2026-05-04 00:11 -33.59607 18.95503 14992 ft 425 kts 236°
2026-05-04 00:12 -33.61608 18.92943 14993 ft 425 kts 236°
2026-05-04 00:12 -33.63632 18.90352 14992 ft 425 kts 236°
2026-05-04 00:12 -33.65658 18.87758 14988 ft 425 kts 236°
2026-05-04 00:12 -33.67679 18.85172 14521 ft 421 kts 236°
2026-05-04 00:13 -33.69674 18.82633 13764 ft 414 kts 235°
2026-05-04 00:13 -33.71644 18.80120 12930 ft 409 kts 235°
2026-05-04 00:13 -33.73561 18.77664 12141 ft 405 kts 233°
2026-05-04 00:13 -33.75481 18.75198 11409 ft 395 kts 233°
2026-05-04 00:14 -33.77291 18.72896 11067 ft 361 kts 232°
2026-05-04 00:14 -33.79241 18.71155 10863 ft 343 kts 213°
2026-05-04 00:14 -33.81439 18.70330 10753 ft 330 kts 194°
2026-05-04 00:14 -33.83690 18.70418 10622 ft 318 kts 173°
2026-05-04 00:15 -33.85781 18.71065 10376 ft 305 kts 171°
2026-05-04 00:15 -33.87803 18.71753 9956 ft 300 kts 166°
2026-05-04 00:15 -33.89784 18.72607 9275 ft 302 kts 164°
2026-05-04 00:15 -33.91731 18.73485 8860 ft 296 kts 163°
2026-05-04 00:16 -33.93677 18.74363 8460 ft 300 kts 163°
2026-05-04 00:16 -33.95638 18.75236 8012 ft 303 kts 163°
2026-05-04 00:16 -33.97632 18.76112 7396 ft 314 kts 163°
2026-05-04 00:16 -33.99721 18.77012 6775 ft 324 kts 163°
2026-05-04 00:17 -34.01874 18.77938 6154 ft 331 kts 162°
2026-05-04 00:17 -34.04073 18.78845 5547 ft 337 kts 164°
2026-05-04 00:17 -34.06299 18.79787 5090 ft 337 kts 163°
2026-05-04 00:17 -34.08473 18.80718 4969 ft 324 kts 163°
2026-05-04 00:18 -34.10538 18.81610 4986 ft 307 kts 163°
2026-05-04 00:18 -34.12499 18.82470 4988 ft 293 kts 163°
2026-05-04 00:18 -34.14367 18.83295 4988 ft 277 kts 165°
2026-05-04 00:18 -34.16154 18.83602 4984 ft 251 kts 195°
2026-05-04 00:19 -34.17692 18.82881 4990 ft 230 kts 229°
2026-05-04 00:19 -34.18573 18.81420 5011 ft 208 kts 261°
2026-05-04 00:19 -34.18675 18.79749 4947 ft 197 kts 281°
2026-05-04 00:19 -34.18533 18.78045 4310 ft 211 kts 283°
2026-05-04 00:20 -34.18347 18.76273 4016 ft 209 kts 283°
2026-05-04 00:20 -34.18158 18.74585 3996 ft 197 kts 283°
2026-05-04 00:20 -34.17978 18.72964 3998 ft 194 kts 283°
2026-05-04 00:20 -34.17769 18.71383 3998 ft 192 kts 292°
2026-05-04 00:21 -34.17086 18.70035 4002 ft 189 kts 311°
2026-05-04 00:21 -34.16213 18.68850 4001 ft 189 kts 313°
2026-05-04 00:21 -34.15326 18.67696 4001 ft 189 kts 313°
2026-05-04 00:21 -34.14428 18.66538 4002 ft 189 kts 314°
2026-05-04 00:22 -34.13384 18.65582 4003 ft 190 kts 333°
2026-05-04 00:22 -34.12101 18.65119 4005 ft 192 kts 340°
2026-05-04 00:22 -34.10808 18.64711 4005 ft 192 kts 340°
2026-05-04 00:22 -34.09514 18.64301 4007 ft 192 kts 340°
2026-05-04 00:23 -34.08240 18.63894 3859 ft 194 kts 341°
2026-05-04 00:23 -34.06865 18.63502 3092 ft 213 kts 344°
2026-05-04 00:23 -34.05402 18.63073 2462 ft 212 kts 341°
2026-05-04 00:23 -34.04057 18.62593 2196 ft 195 kts 343°
2026-05-04 00:24 -34.02749 18.62163 1352 ft 192 kts 343°
2026-05-04 00:24 -34.01505 18.61753 749 ft 180 kts 347°
2026-05-04 00:24 -34.00363 18.61391 507 ft 157 kts 348°
2026-05-04 00:24 -33.99378 18.61079 337 ft 135 kts 347°
2026-05-04 00:25 -33.98514 18.60804 181 ft 123 kts 347°
2026-05-04 00:25 -33.97608 18.60523 420 ft 154 kts 349°
2026-05-04 00:25 -33.96414 18.60172 871 ft 201 kts 348°
2026-05-04 00:25 -33.94967 18.59757 1764 ft 208 kts 347°
2026-05-04 00:26 -33.93581 18.59745 3219 ft 198 kts 11°
2026-05-04 00:26 -33.92435 18.60688 4315 ft 211 kts 43°
2026-05-04 00:26 -33.91850 18.62360 5090 ft 234 kts 77°
2026-05-04 00:26 -33.92050 18.64355 5844 ft 248 kts 104°
2026-05-04 00:27 -33.92636 18.66338 6638 ft 252 kts 108°
2026-05-04 00:27 -33.93278 18.68325 7416 ft 256 kts 109°
2026-05-04 00:27 -33.93937 18.70352 7859 ft 263 kts 109°
2026-05-04 00:27 -33.94605 18.72411 7977 ft 263 kts 109°
2026-05-04 00:28 -33.95262 18.74434 8004 ft 261 kts 109°
2026-05-04 00:28 -33.95932 18.76475 8006 ft 262 kts 112°
2026-05-04 00:28 -33.96986 18.78235 7872 ft 259 kts 143°
2026-05-04 00:28 -33.98469 18.79451 7554 ft 257 kts 152°
2026-05-04 00:29 -34.00015 18.80530 7255 ft 256 kts 153°
2026-05-04 00:29 -34.01548 18.81567 6969 ft 255 kts 153°
2026-05-04 00:29 -34.03098 18.82605 6710 ft 254 kts 154°
2026-05-04 00:29 -34.04692 18.83696 6036 ft 273 kts 153°
2026-05-04 00:30 -34.06409 18.84751 5651 ft 274 kts 167°
2026-05-04 00:30 -34.08245 18.85114 5364 ft 266 kts 182°
2026-05-04 00:30 -34.10089 18.85255 5060 ft 264 kts 183°
2026-05-04 00:30 -34.11918 18.85369 4979 ft 264 kts 183°
2026-05-04 00:31 -34.13771 18.85477 4988 ft 266 kts 184°
2026-05-04 00:31 -34.15600 18.85585 4987 ft 264 kts 183°
2026-05-04 00:31 -34.17408 18.85702 4981 ft 257 kts 183°
2026-05-04 00:31 -34.19167 18.85701 4962 ft 247 kts 200°
2026-05-04 00:32 -34.20641 18.84852 4975 ft 229 kts 232°
2026-05-04 00:32 -34.21429 18.83329 4977 ft 207 kts 265°
2026-05-04 00:32 -34.21653 18.81640 4978 ft 202 kts 272°
2026-05-04 00:32 -34.21776 18.79949 4978 ft 201 kts 273°
2026-05-04 00:33 -34.21878 18.78263 4975 ft 200 kts 273°
2026-05-04 00:33 -34.22042 18.74926 4984 ft 200 kts 275°
2026-05-04 00:33 -34.21743 18.73355 4984 ft 191 kts 304°
2026-05-04 00:34 -34.20914 18.72101 4990 ft 191 kts 312°
2026-05-04 00:34 -34.20001 18.70928 4991 ft 191 kts 313°
2026-05-04 00:34 -34.19077 18.69764 4994 ft 191 kts 313°
2026-05-04 00:34 -34.18167 18.68622 4917 ft 193 kts 313°
2026-05-04 00:35 -34.17185 18.67391 4175 ft 210 kts 314°
2026-05-04 00:35 -34.16039 18.66418 3963 ft 196 kts 334°
2026-05-04 00:35 -34.14732 18.65943 3502 ft 197 kts 341°
2026-05-04 00:35 -34.13391 18.65528 3166 ft 198 kts 341°
2026-05-04 00:36 -34.12061 18.65111 2880 ft 195 kts 341°
2026-05-04 00:36 -34.10779 18.64704 2620 ft 192 kts 341°
2026-05-04 00:36 -34.09497 18.64296 2376 ft 188 kts 342°
2026-05-04 00:36 -34.08239 18.63896 2119 ft 185 kts 342°
2026-05-04 00:37 -34.07032 18.63514 1877 ft 172 kts 343°
2026-05-04 00:37 -34.05932 18.63165 1682 ft 154 kts 343°
2026-05-04 00:37 -34.04949 18.62852 1441 ft 138 kts 345°
2026-05-04 00:37 -34.04084 18.62577 1269 ft 124 kts 344°
2026-05-04 00:38 -34.03281 18.62322 1103 ft 118 kts 345°
2026-05-04 00:38 -34.02505 18.62074 953 ft 114 kts 346°
2026-05-04 00:38 -34.01722 18.61826 815 ft 118 kts 348°
2026-05-04 00:38 -34.00930 18.61571 569 ft 116 kts 348°
2026-05-04 00:39 -34.00131 18.61314 474 ft 124 kts 347°
2026-05-04 00:39 -33.99294 18.61048 281 ft 128 kts 348°
2026-05-04 00:39 -33.98448 18.60781 165 ft 119 kts 348°
2026-05-04 00:39 -33.97806 18.60580 151 ft 57 kts 345°
2026-05-04 00:40 -33.97673 18.60538 151 ft 12 kts 345°
2026-05-04 00:40 -33.97461 18.60472 149 ft 36 kts 345°
2026-05-04 00:40 -33.97217 18.60389 151 ft 36 kts 338°
2026-05-04 00:40 -33.97117 18.60271 152 ft 17 kts 299°
2026-05-04 00:41 -33.97093 18.60196 152 ft 0 kts 286°
2026-05-04 00:41 -33.97090 18.60181 152 ft 4 kts 286°
2026-05-04 00:41 -33.97081 18.60144 152 ft 0 kts 287°
2026-05-04 00:42 -33.97074 18.60113 152 ft 12 kts 285°
2026-05-04 00:42 -33.97060 18.60053 152 ft 7 kts 285°
2026-05-04 00:43 -33.97033 18.59961 152 ft 4 kts 308°
2026-05-04 00:43 -33.97020 18.59892 152 ft 13 kts 255°
2026-05-04 00:43 -33.97029 18.59845 152 ft 0 kts 256°
2026-05-04 00:43 -33.96893 18.59726 325 ft 57 kts 360°
2026-05-04 00:44 -33.96869 18.59615 164 ft 2 kts 357°
2026-05-04 00:44 -33.96868 18.59620 164 ft 0 kts